Terug naar catalogus

CZ-6A DEB

ActiefPO
NORAD 60863·DEBRIS·🇨🇳 China

Gelanceerd Aug 6, 2024 vanaf Taiyuan Satellite Launch Center

Loading…

Volgende Passages (komende 24 uur)

TLE

VersSource: Space-Track

Epoch: Sep 14, 2026, 11:30 UTC

1 60863U 24140JS  26257.47948132  .00000250  00000-0  10216-3 0  9994
2 60863  88.9949 263.9678 0024013 262.2448  97.6018 14.24144039108160

Volg CZ-6A DEB in realtime met AllMySat

Download on the App Store